1340668827613,0.758042
1340668887613,0.758073
1340668947613,0.762925
1340669007613,0.771453
1340669067613,0.774647
1340669127613,0.773346
1340669187613,0.782933
1340669247613,0.789370
1340669307613,0.778809
1340669367613,0.795483
1340669427613,0.779550
1340669487613,0.784036
1340669547613,0.783729
1340669607613,0.786971
1340669667613,0.790015
1340669727613,0.784036
1340669787613,0.786498
1340669847613,0.777689
1340669907613,0.785265
1340669967613,0.785410
1340670027613,0.778453
1340670087613,0.773470
1340670147613,0.771391
1340670207613,0.768382
1340670267613,0.774156
1340670327613,0.776915
1340670387613,0.774082
1340670447613,0.762503
1340670507613,0.763392
1340670567613,0.763263
1340670627613,0.758522
1340670687613,0.751153
1340670747613,0.757271
1340670807613,0.753179
1340670867613,0.754230
1340670927613,0.749263
1340670987613,0.748650
1340671047613,0.752919
1340671107613,0.742088
1340671167613,0.753513
1340671227613,0.754405
1340671287613,0.746367
1340671347613,0.753106
1340671407613,0.753813
1340671467613,0.745202
1340671527613,0.738633
1340671587613,0.746713
1340671647613,0.743831
1340671707613,0.742537
1340671767613,0.742594
1340671827613,0.745206
1340671887613,0.736915
1340671947613,0.737483
1340672007613,0.734842
1340672067613,0.732778
1340672127613,0.746640
1340672187613,0.737140
1340672247613,0.734683
1340672307613,0.739018
1340672367613,0.732842
1340672427623,0.728981
1340672487623,0.729275
1340672547623,0.720722
1340672607623,0.731159
1340672667623,0.734520
1340672727623,0.721726
1340672787623,0.722696
1340672847623,0.725730
1340672907623,0.722200
1340672967623,0.720227
1340673027623,0.725181
1340673087623,0.728319
1340673147623,0.728192
1340673207623,0.725534
1340673267623,0.727149
1340673327623,0.720112
1340673387623,0.725239
1340673447623,0.718921
1340673507623,0.726036
1340673567623,0.723321
1340673627623,0.721623
1340673687623,0.724078
1340673747623,0.717379
1340673807623,0.718032
1340673867623,0.717566
1340673927623,0.724729
1340673987623,0.726292
1340674047623,0.726044
1340674107623,0.726626
1340674167623,0.726390
1340674227623,0.726278
1340674287623,0.724472
1340674347623,0.714790
1340674407623,0.720751
1340674467623,0.713685
1340674527623,0.719604
1340674587623,0.720803
1340674647623,0.720745
1340674707623,0.719896
1340674767623,0.721324
1340674827623,0.722503
1340674887623,0.720783
1340674947623,0.716831
1340675007623,0.725809
1340675067623,0.718036
1340675127623,0.715727
1340675187623,0.717037
1340675247623,0.712432
1340675307623,0.715081
1340675367623,0.715697
1340675427623,0.715359
1340675487623,0.718378
1340675547623,0.721805
1340675607623,0.719844
1340675667623,0.716403
1340675727623,0.712093
1340675787623,0.722595
1340675847623,0.717416
1340675907623,0.719915
1340675967623,0.722095
1340676027633,0.720675
1340676087633,0.723268
1340676147633,0.722429
1340676207633,0.720549
1340676267633,0.718438
1340676327633,0.726657
1340676387633,0.729865
1340676447633,0.719810
1340676507633,0.727958
1340676567633,0.723959
1340676627633,0.732584
1340676687633,0.722756
1340676747633,0.722678
1340676807633,0.717787
1340676867633,0.727434
1340676927633,0.723492
1340676987633,0.718407
1340677047633,0.712337
1340677107633,0.719537
1340677167633,0.713955
1340677227633,0.720040
1340677287633,0.718796
1340677347633,0.718939
1340677407633,0.712613
1340677467633,0.719359
1340677527633,0.716910
1340677587633,0.715422
1340677647633,0.716346
1340677707633,0.715630
1340677767633,0.712439
1340677827633,0.710326
1340677887633,0.718930
1340677947633,0.706096
1340678007633,0.713103
1340678067633,0.720876
1340678127633,0.715382
1340678187633,0.714495
1340678247633,0.716111
1340678307633,0.720150
1340678367633,0.712145
1340678427633,0.707647
1340678487633,0.723773
1340678547633,0.709075
1340678607633,0.724263
1340678667633,0.726316
1340678727633,0.725085
1340678787633,0.722322
1340678847633,0.719710
1340678907633,0.713791
1340678967633,0.718094
1340679027633,0.719268
1340679087633,0.712581
1340679147633,0.714988
1340679207633,0.721526
1340679267633,0.718952
1340679327633,0.716254
1340679387633,0.717823
1340679447633,0.714586
1340679507633,0.716730
1340679567633,0.715020
1340679627643,0.713076
1340679687643,0.717867
1340679747643,0.720315
1340679807643,0.714704
1340679867643,0.716922
1340679927643,0.721908
1340679987643,0.718761
1340680047643,0.713598
1340680107643,0.722771
1340680167643,0.716336
1340680227643,0.718196
1340680287643,0.718819
1340680827643,0.713112
1340680887643,0.724663
1340680947643,0.717781
1340681007643,0.721090
1340681067643,0.720144
1340681127643,0.713165
1340681187643,0.712502
1340681247643,0.717195
1340681307643,0.713092
1340681367643,0.719645
1340681427643,0.716926
1340681487643,0.719978
1340681547643,0.718779
1340681607643,0.721512
1340681667643,0.715655
1340681727643,0.719128
1340681787643,0.714853
1340681847643,0.717940
1340681907643,0.723772
1340681967643,0.723808
1340682027643,0.722586
1340682087643,0.716203
1340682147643,0.714006
1340682207643,0.721000
1340682267643,0.719212
1340682327643,0.721309
1340682387643,0.724467
1340682447643,0.724327
1340682507643,0.728815
1340682567643,0.722908
1340682627643,0.726597
1340682687643,0.731412
1340682747643,0.731187
1340682807643,0.724359
1340682867643,0.722622
1340682927643,0.729537
1340682987643,0.731923
1340683047643,0.744033
1340683107643,0.734075
1340683167643,0.730749
1340683227652,0.730415
1340683287652,0.732684
1340683347652,0.722233
1340683407652,0.732209
1340683467652,0.724061
1340683527652,0.726085
1340683587652,0.731132
1340683647652,0.730118
1340683707652,0.728266
1340683767652,0.736397
1340683827652,0.734812
1340683887652,0.731717
1340683947652,0.730647
1340684007652,0.734729
1340684067652,0.729842
1340684127652,0.726468
1340684187652,0.725312
1340684247652,0.729641
1340684307652,0.732539
1340684367652,0.728148
1340684427652,0.726006
1340684487652,0.723314
1340684547652,0.728968
1340684607652,0.730663
1340684667652,0.726763
1340684727652,0.725930
1340684787652,0.724337
1340684847652,0.730932
1340684907652,0.725083
1340684967652,0.728536
1340685027652,0.720526
1340685087652,0.727943
1340685147652,0.729086
1340685207652,0.729059
1340685267652,0.724543
1340685327652,0.726240
1340685387652,0.730886
1340685447652,0.728059
1340685507652,0.725800
1340685567652,0.722373
1340685627652,0.717256
1340685687652,0.724814
1340685747652,0.722272
1340685807652,0.722207
1340685867652,0.727851
1340685927652,0.726650
1340685987652,0.729417
1340686047652,0.726776
1340686107652,0.725154
1340686167652,0.729071
1340686227652,0.721948
1340686287652,0.714846
1340686347652,0.723396
1340686407652,0.717192
1340686467652,0.722104
1340686527652,0.728144
1340686587652,0.725084
1340686647652,0.725555
1340686707652,0.724075
1340686767652,0.726819
1340686827661,0.728644
1340686887661,0.727414
1340686947661,0.727937
1340687007661,0.729504
1340687067661,0.726841
1340687127661,0.722313
1340687187661,0.722670
1340687247661,0.728169
1340687307661,0.727465
1340687367661,0.730145
1340687427661,0.722169
1340687487661,0.722766
1340687547661,0.723749
1340687607661,0.724721
1340687667661,0.722596
1340687727661,0.722520
1340687787661,0.727795
1340687847661,0.723337
1340687907661,0.724106
1340687967661,0.732991
1340688027661,0.725284
1340688087661,0.726581
1340688147661,0.720664
1340688207661,0.719973
1340688267661,0.719295
1340688327661,0.723192
1340688387661,0.720039
1340688447661,0.723654
1340688507661,0.719569
1340688567661,0.725857
1340688627661,0.725654
1340688687661,0.729094
1340688747661,0.722786
1340688807661,0.722648
1340688867661,0.723529
1340688927661,0.725314
1340688987661,0.731533
1340689047661,0.724275
1340689107661,0.731051
1340689167661,0.723699
1340689227661,0.721404
1340689287661,0.719196
1340689347661,0.724969
1340689407661,0.724642
1340689467661,0.722728
1340689527661,0.724416
1340689587661,0.726627
1340689647661,0.724941
1340689707661,0.726219
1340689767661,0.725420
1340689827661,0.726312
1340689887661,0.725314
1340689947661,0.728151
1340690007661,0.728008
1340690067661,0.722629
1340690127661,0.732479
1340690187661,0.730137
1340690247661,0.728228
1340690307661,0.723679
1340690367661,0.721167
1340690427670,0.731930
1340690487670,0.728216
1340690547670,0.727702
1340690607670,0.724625
1340690667670,0.727327
1340690727670,0.730912
1340690787670,0.727798
1340690847670,0.719851
1340690907670,0.733548
1340690967670,0.724568
1340691027670,0.729134
1340691087670,0.731478
1340691147670,0.731820
1340691207670,0.717306
1340691267670,0.733353
1340691327670,0.720755
1340691387670,0.725694
1340691447670,0.725605
1340691507670,0.728276
1340691567670,0.716816
1340691627670,0.727663
1340691687670,0.719641
1340691747670,0.721301
1340691807670,0.719322
1340691867670,0.724716
1340691927670,0.719813
1340691987670,0.717809
1340692047670,0.723727
1340692107670,0.727804
1340692167670,0.724605
1340692227670,0.716943
1340692287670,0.722691
1340692347670,0.728460
1340692407670,0.723918
1340692467670,0.719401
1340692527670,0.723455
1340692587670,0.723512
1340692647670,0.727071
1340692707670,0.733242
1340692767670,0.721104
1340692827670,0.727193
1340692887670,0.727482
1340692947670,0.723599
1340693007670,0.720500
1340693067670,0.729414
1340693127670,0.725004
1340693187670,0.729710
1340693247670,0.725154
1340693307670,0.722698
1340693367670,0.725370
1340693427670,0.721117
1340693487670,0.722959
1340693547670,0.722426
1340693607670,0.720711
1340693667670,0.720953
1340693727670,0.719184
1340693787670,0.723826
1340693847670,0.728845
1340693907670,0.725334
1340693967670,0.721660
1340694027680,0.724136
1340694087680,0.722970
1340694147680,0.731608
1340694207680,0.723158
1340694267680,0.724175
1340694327680,0.722653
1340694387680,0.726003
1340694447680,0.727644
1340694507680,0.729000
1340694567680,0.729748
1340694627680,0.724217
1340694687680,0.728279
1340694747680,0.732000
1340694807680,0.726023
1340694867680,0.726904
1340694927680,0.719625
1340694987680,0.729800
1340695047680,0.726459
1340695107680,0.726504
1340695167680,0.722963
1340695227680,0.726036
1340695287680,0.723874
1340695347680,0.726969
1340695407680,0.725052
1340695467680,0.720369
1340695527680,0.728834
1340695587680,0.726849
1340695647680,0.728830
1340695707680,0.721472
1340695767680,0.728133
1340695827680,0.728892
1340695887680,0.728650
1340695947680,0.728286
1340696007680,0.727787
1340696067680,0.734881
1340696127680,0.726472
1340696187680,0.722409
1340696247680,0.723170
1340696307680,0.729126
1340696367680,0.726303
1340696427680,0.730660
1340696487680,0.726428
1340696547680,0.728930
1340696607680,0.735829
1340696667680,0.726399
1340696727680,0.729504
1340696787680,0.726437
1340696847680,0.727239
1340696907680,0.718089
1340696967680,0.730328
1340697027680,0.723757
1340697087680,0.726954
1340697147680,0.729636
1340697207680,0.719233
1340697267680,0.732096
1340697327680,0.727903
1340697387680,0.720651
1340697447680,0.729469
1340697507680,0.728539
1340697567680,0.725239
1340697627689,0.731569
1340697687689,0.730139
1340697747689,0.726178
1340697807689,0.723796
1340697867689,0.725862
1340697927689,0.727243
1340697987689,0.724890
1340698047689,0.723077
1340698107689,0.722037
1340698167689,0.728890
1340698227689,0.728700
1340698287689,0.721641
1340698347689,0.723149
1340698407689,0.722203
1340698467689,0.729225
1340698527689,0.727656
1340698587689,0.727300
1340698647689,0.719715
1340698707689,0.729063
1340698767689,0.721496
1340698827689,0.728896
1340698887689,0.726765
1340698947689,0.729319
1340699007689,0.730575
1340699067689,0.735380
1340699127689,0.730117
1340699187689,0.726743
1340699247689,0.726119
1340699307689,0.731901
1340699367689,0.729619
1340699427689,0.736429
1340699487689,0.737581
1340699547689,0.738921
1340699607689,0.733239
1340699667689,0.735243
1340699727689,0.729650
1340699787689,0.730390
1340699847689,0.735489
1340699907689,0.730523
1340699967689,0.731793
1340700027689,0.727106
1340700087689,0.732864
1340700147689,0.734261
1340700207689,0.729646
1340700267689,0.724399
1340700327689,0.729821
1340700387689,0.728405
1340700447689,0.732294
1340700507689,0.724234
1340700567689,0.730112
1340700627689,0.730613
1340700687689,0.736359
1340700747689,0.735604
1340700807689,0.728510
1340700867689,0.723425
1340700927689,0.724999
1340700987689,0.722312
1340701047689,0.732816
1340701107689,0.723491
1340701167689,0.725893
1340701227698,0.725750
1340701287698,0.729349
1340701347698,0.744499
1340701407698,0.754797
1340701467698,0.733376
1340701527698,0.731328
1340701587698,0.739407
1340701647698,0.745124
1340701707698,0.746644
1340701767698,0.751965
1340701827698,0.750962
1340701887698,0.754497
1340701947698,0.762354
1340702007698,0.752647
1340702067698,0.756489
1340702127698,0.759714
1340702187698,0.755303
1340702247698,0.759041
1340702307698,0.755871
1340702367698,0.751191
1340702427698,0.754479
1340702487698,0.753949
1340702547698,0.755886
1340702607698,0.748524
1340702667698,0.752717
1340702727698,0.751906
1340702787698,0.753777
1340702847698,0.747418
1340702907698,0.740557
1340702967698,0.743884
1340703027698,0.746670
1340703087698,0.744590
1340703147698,0.743330
1340703207698,0.747204
1340703267698,0.737515
1340703327698,0.742167
1340703387698,0.741446
1340703447698,0.740525
1340703507698,0.734797
1340703567698,0.739117
1340703627698,0.740512
1340703687698,0.743307
1340703747698,0.740732
1340703807698,0.736778
1340703867698,0.739522
1340703927698,0.735708
1340703987698,0.739048
1340704047698,0.735641
1340704107698,0.732641
1340704167698,0.740364
1340704227698,0.742193
1340704287698,0.737816
1340704347698,0.738666
1340704407698,0.734390
1340704467698,0.736797
1340704527698,0.743022
1340704587698,0.735936
1340704647698,0.737647
1340704707698,0.735005
1340704767698,0.730757
1340704827707,0.724402
1340704887707,0.742099
1340704947707,0.739130
1340705007707,0.735004
1340705067707,0.731597
1340705127707,0.740639
1340705187707,0.738371
1340705247707,0.730984
1340705307707,0.729044
1340705367707,0.735961
1340705427707,0.729077
1340705487707,0.755855
1340705547707,0.738929
1340705607707,0.745416
1340705667707,0.743072
1340705727707,0.749335
1340705787707,0.738490
1340705847707,0.746626
1340705907707,0.750727
1340705967707,0.744226
1340706027707,0.747122
1340706087707,0.749573
1340706147707,0.753399
1340706207707,0.753732
1340706267707,0.752840
1340706327707,0.751393
1340706387707,0.758433
1340706447707,0.755394
1340706507707,0.750002
1340706567707,0.762459
1340706627707,0.759165
1340706687707,0.756750
1340706747707,0.752650
1340706807707,0.754639
1340706867707,0.756699
1340706927707,0.757195
1340706987707,0.754367
1340707047707,0.753949
1340707107707,0.755830
1340707167707,0.751895
1340707227707,0.752705
1340707287707,0.756094
1340707347707,0.752941
1340707407707,0.754931
1340707467707,0.752345
1340707527707,0.752548
1340707587707,0.757005
1340707647707,0.749640
1340707707707,0.745466
1340707767707,0.749206
1340707827707,0.753648
1340707887707,0.753424
1340707947707,0.748359
1340708007707,0.750065
1340708067707,0.750093
1340708127707,0.749052
1340708187707,0.751435
1340708247707,0.749924
1340708307707,0.746803
1340708367707,0.742870
1340708427716,0.752161
1340708487716,0.747695
1340708547716,0.741108
1340708607716,0.740834
1340708667716,0.740346
1340708727716,0.742691
1340708787716,0.736642
1340708847716,0.741076
1340708907716,0.736881
1340708967716,0.742056
1340709027716,0.736957
1340709087716,0.735853
1340709147716,0.739885
1340709207716,0.742134
1340709267716,0.745048
1340709327716,0.742312
1340709387716,0.739387
1340709447716,0.741420
1340709507716,0.741122
1340709567716,0.738709
1340709627716,0.745085
1340709687716,0.739816
1340709747716,0.737929
1340709807716,0.740139
1340709867716,0.744820
1340709927716,0.736585
1340709987716,0.730244
1340710047716,0.745920
1340710107716,0.737810
1340710167716,0.736830
1340710227716,0.732759
1340710287716,0.738329
1340710347716,0.736955
1340710407716,0.742535
1340710467716,0.742956
1340710527716,0.742863
1340710587716,0.742809
1340710647716,0.733240
1340710707716,0.742352
1340710767716,0.733345
1340710827716,0.735951
1340710887716,0.747150
1340710947716,0.739329
1340711007716,0.740320
1340711067716,0.737370
1340711127716,0.734812
1340711187716,0.739042
1340711247716,0.736697
1340711307716,0.736501
1340711367716,0.735098
1340711427716,0.733615
1340711487716,0.728638
1340711547716,0.730092
1340711607716,0.739497
1340711667716,0.735569
1340711727716,0.730854
1340711787716,0.739178
1340711847716,0.741024
1340711907716,0.731769
1340711967716,0.735210
1340712027725,0.741472
1340712087725,0.731039
1340712147725,0.737719
1340712207725,0.736326
1340712267725,0.735474
1340712327725,0.734693
1340712387725,0.736308
1340712447725,0.734081
1340712507725,0.735812
1340712567725,0.736050
1340712627725,0.737175
1340712687725,0.727310
1340712747725,0.729109
1340712807725,0.734895
1340712867725,0.736620
1340712927725,0.735421
1340712987725,0.741602
1340713047725,0.732447
1340713107725,0.743730
1340713167725,0.743805
1340713227725,0.740353
1340713287725,0.730995
1340713347725,0.735087
1340713407725,0.735239
1340713467725,0.740395
1340713527725,0.735169
1340713587725,0.738392
1340713647725,0.728529
1340713707725,0.740336
1340713767725,0.737416
1340713827725,0.733217
1340713887725,0.739491
1340713947725,0.731431
1340714007725,0.732211
1340714067725,0.737779
1340714127725,0.735149
1340714187725,0.733136
1340714247725,0.726543
1340714307725,0.738959
1340714367725,0.729747
1340714427725,0.738401
1340714487725,0.739829
1340714547725,0.736201
1340714607725,0.741544
1340714667725,0.742092
1340714727725,0.750036
1340714787725,0.752310
1340714847725,0.756479
1340714907725,0.759217
1340714967725,0.764349
1340715027725,0.773424
1340715087725,0.776015
1340715147725,0.791250
1340715207725,0.786439
1340715267725,0.804479
1340715327725,0.807459
1340715387725,0.804420
1340715447725,0.804692
1340715507725,0.811334
1340715567725,0.820468
1340715627734,0.808858
1340715687734,0.811894
1340715747734,0.809799
1340715807734,0.800107
1340715867734,0.809216
1340715927734,0.801779
1340715987734,0.795199
1340716047734,0.794889
1340716107734,0.789081
1340716167734,0.788589
1340716227734,0.784103
1340716287734,0.780243
1340716347734,0.783078
1340716407734,0.777257
1340716467734,0.769488
1340716527734,0.775922
1340716587734,0.769044
1340716647734,0.760555
1340716707734,0.764572
1340716767734,0.764263
1340716827734,0.764583
1340716887734,0.763411
1340716947734,0.758524
1340717007734,0.759368
1340717067734,0.759443
1340717127734,0.757000
1340717187734,0.757717
1340717247734,0.754948
1340717307734,0.754671
1340717367734,0.751532
1340717427734,0.752503
1340717487734,0.752290
1340717547734,0.751645
1340717607734,0.742332
1340717667734,0.750644
1340717727734,0.745840
1340717787734,0.744696
1340717847734,0.750187
1340717907734,0.749015
1340717967734,0.749887
1340718027734,0.750499
1340718087734,0.741711
1340718147734,0.747401
1340718207734,0.745932
1340718267734,0.750948
1340718327734,0.754540
1340718387734,0.746413
1340718447734,0.743369
1340718507734,0.740295
1340718567734,0.749484
1340718627734,0.742728
1340718687734,0.746234
1340718747734,0.749467
1340718807734,0.741419
1340718867734,0.736199
1340718927734,0.737767
1340718987734,0.740562
1340719047734,0.741955
1340719107734,0.743164
1340719167734,0.742527
1340719227743,0.735702
1340719287743,0.734007
1340719347743,0.742766
1340719407743,0.740338
1340719467743,0.743351
1340719527743,0.740044
1340719587743,0.731763
1340719647743,0.742967
1340719707743,0.743817
1340719767743,0.732996
1340719827743,0.737595
1340719887743,0.738573
1340719947743,0.739714
1340720007743,0.736940
1340720067743,0.738575
1340720127743,0.741534
1340720187743,0.739843
1340720247743,0.739492
1340720307743,0.735409
1340720367743,0.737344
1340720427743,0.739911
1340720487743,0.736888
1340720547743,0.747117
1340720607743,0.740093
1340720667743,0.742241
1340720727743,0.742348
1340720787743,0.738878
1340720847743,0.746371
1340720907743,0.740022
1340720967743,0.743978
1340721027743,0.751421
1340721087743,0.746804
1340721147743,0.745869
1340721207743,0.747704
1340721267743,0.741642
1340721327743,0.747681
1340721387743,0.748369
1340721447743,0.737484
1340721507743,0.745771
1340721567743,0.735128
1340721627743,0.738769
1340721687743,0.739741
1340721747743,0.747568
1340721807743,0.738115
1340721867743,0.738854
1340721927743,0.733264
1340721987743,0.742545
1340722047743,0.744660
1340722107743,0.741357
1340722167743,0.731855
1340722227743,0.741756
1340722287743,0.738858
1340722347743,0.733682
1340722407743,0.735822
1340722467743,0.737564
1340722527743,0.741022
1340722587743,0.747094
1340722647743,0.735860
1340722707743,0.743099
1340722767743,0.733549
1340722827753,0.731477
1340722887753,0.735874
1340722947753,0.738203
1340723007753,0.737720
1340723067753,0.732102
1340723127753,0.735805
1340723187753,0.730733
1340723247753,0.735839
1340723307753,0.736894
1340723367753,0.735461
1340723427753,0.737877
1340723487753,0.737595
1340723547753,0.733226
1340723607753,0.738316
1340723667753,0.737814
1340723727753,0.732850
1340723787753,0.733224
1340723847753,0.739565
1340723907753,0.733779
1340723967753,0.741637
1340724027753,0.740514
1340724087753,0.746363
1340724147753,0.750069
1340724207753,0.744416
1340724267753,0.739689
1340724327753,0.735100
1340724387753,0.731365
1340724447753,0.737981
1340724507753,0.733337
1340724567753,0.735866
1340724627753,0.740983
1340724687753,0.731702
1340724747753,0.736734
1340724807753,0.739078
1340724867753,0.733275
1340724927753,0.743519
1340724987753,0.736787
1340725047753,0.740372
1340725107753,0.741972
1340725167753,0.739146
1340725227753,0.744843
1340725287753,0.738255
1340725347753,0.738490
1340725407753,0.740676
1340725467753,0.737979
1340725527753,0.736733
1340725587753,0.738406
1340725647753,0.734964
1340725707753,0.743176
1340725767753,0.740833
1340725827753,0.738432
1340725887753,0.741319
1340725947753,0.735979
1340726007753,0.738910
1340726067753,0.739603
1340726127753,0.742183
1340726187753,0.741109
1340726247753,0.746564
1340726307753,0.741059
1340726367753,0.737016
1340726427762,0.746882
1340726487762,0.747113
1340726547762,0.743349
1340726607762,0.751298
1340726667762,0.740077
1340726727762,0.746773
1340726787762,0.743306
1340726847762,0.745228
1340726907762,0.740834
1340726967762,0.743012
1340727027762,0.745935
1340727087762,0.739427
1340727147762,0.745767
1340727207762,0.741988
1340727267762,0.742789
1340727327762,0.750714
1340727387762,0.743217
1340727447762,0.743040
1340727507762,0.742429
1340727567762,0.739433
1340727627762,0.743136
1340727687762,0.744587
1340727747762,0.740990
1340727807762,0.748493
1340727867762,0.741719
1340727927762,0.739021
1340727987762,0.742896
1340728047762,0.732727
1340728107762,0.747950
1340728167762,0.744738
1340728227762,0.737407
1340728287762,0.746134
1340728347762,0.744344
1340728407762,0.751939
1340728467762,0.743972
1340728527762,0.741411
1340728587762,0.743799
1340728647762,0.750654
1340728707762,0.736302
1340728767762,0.745419
1340728827762,0.743857
1340728887762,0.744529
1340728947762,0.738744
1340729007762,0.744175
1340729067762,0.738514
1340729127762,0.742254
1340729187762,0.743099
1340729247762,0.750705
1340729307762,0.742532
1340729367762,0.743718
1340729427762,0.745893
1340729487762,0.741016
1340729547762,0.742409
1340729607762,0.747749
1340729667762,0.741570
1340729727762,0.743560
1340729787762,0.745234
1340729847762,0.742823
1340729907762,0.750338
1340729967762,0.751142
1340730027772,0.745760
1340730087772,0.755693
1340730147772,0.756410
1340730207772,0.752123
1340730267772,0.755933
1340730327772,0.755999
1340730387772,0.755029
1340730447772,0.755694
1340730507772,0.754647
1340730567772,0.757798
1340730627772,0.757031
1340730687772,0.758998
1340730747772,0.752470
1340730807772,0.756556
1340730867772,0.758400
1340730927772,0.760346
1340730987772,0.759589
1340731047772,0.758261
1340731107772,0.762096
1340731167772,0.752917
1340731227772,0.762770
1340731287772,0.772602
1340731347772,0.761979
1340731407772,0.765865
1340731467772,0.763874
1340731527772,0.761326
1340731587772,0.759379
1340731647772,0.762965
1340731707772,0.761444
1340731767772,0.758068
1340731827772,0.762232